Home > Weather > Iráklion > Past weeks

Flag for Greece Weather for the Past 2 Weeks in Iráklion, Crete, Greece

Now
50 °F

Passing clouds.


Feels Like: 44 °F
Forecast: 46 / 58 °F
Wind: 17 mph from Northwest

Location: Heraklion Airport

Current Time: Feb 7, 2016 at 8:49:11 PM

Latest Report: Feb 7, 2016 at 7:50 PM


Visibility: N/A

Pressure: 30.27 "Hg

Humidity: 54%

Dew point: 34 °F

Location of IráklionLocation

Historic Weather in Iráklion — Graph

°F

Iráklion Temperature Yesterday

Maximum temperature yesterday: 50 °F (at 12:20 AM)
Minimum temperature yesterday: 48 °F (at 9:50 AM)
Average temperature yesterday: 50 °F

High & Low Weather Summary for the Past Weeks

 TemperatureHumidityPressure
High66 °F (Feb 3, 10:50 AM)94% (Jan 30, 10:50 PM)30.45 "Hg (Jan 30, 10:50 PM)
Low41 °F (Jan 28, 1:50 AM)46% (Jan 24, 4:50 AM)29.77 "Hg (Feb 5, 12:50 PM)
Average53 °F69%30.26 "Hg
* Reported Jan 23 7:20 PM — Feb 7 7:20 PM, Iráklion, Weather by CustomWeather, © 2016

Note: Actual official high and low records may vary slightly from our data, if they occured in-between our weather recording intervals... More about our weather records

Advertising

Iráklion Weather History for the Previous 24 Hours

 ConditionsComfort  
Time TempWeatherWind HumidityBarometerVisibility
7:20 PM
Sun, Feb 7
50 °FPassing clouds.20 mph54%30.27 "HgN/A
6:50 PM50 °FPassing clouds.20 mph54%30.27 "HgN/A
6:20 PM52 °FPassing clouds.18 mph54%30.24 "HgN/A
5:50 PM52 °FScattered clouds.21 mph54%30.24 "HgN/A
5:20 PM52 °FScattered clouds.21 mph54%30.24 "HgN/A
4:50 PM52 °FScattered clouds.21 mph54%30.24 "HgN/A
4:20 PM52 °FScattered clouds.21 mph54%30.24 "HgN/A
3:50 PM52 °FScattered clouds.21 mph54%30.24 "HgN/A
2:50 PM52 °FScattered clouds.21 mph54%30.24 "HgN/A
2:20 PM52 °FScattered clouds.22 mph47%30.27 "HgN/A
1:50 PM52 °FScattered clouds.22 mph47%30.27 "HgN/A
1:20 PM50 °FScattered clouds.23 mph50%30.30 "HgN/A
12:50 PM50 °FScattered clouds.21 mph50%30.30 "HgN/A
12:20 PM50 °FScattered clouds.22 mph50%30.33 "HgN/A
11:50 AM50 °FScattered clouds.22 mph50%30.33 "HgN/A
11:20 AM50 °FPartly sunny.20 mph50%30.33 "HgN/A
10:50 AM50 °FPartly sunny.17 mph50%30.33 "HgN/A
10:20 AM50 °FPartly sunny.24 mph50%30.33 "HgN/A
9:50 AM50 °FPartly sunny.24 mph50%30.33 "HgN/A
9:20 AM50 °FPartly sunny.23 mph50%30.33 "HgN/A
8:50 AM50 °FPartly sunny.23 mph50%30.33 "HgN/A
8:20 AM48 °FPartly sunny.23 mph58%30.30 "HgN/A
7:50 AM48 °FPartly sunny.22 mph58%30.30 "HgN/A
7:20 AM50 °FPartly sunny.24 mph50%30.30 "HgN/A
6:20 AM50 °FPassing clouds.25 mph50%30.27 "HgN/A
5:50 AM50 °FPassing clouds.28 mph50%30.27 "HgN/A
4:50 AM50 °FPassing clouds.26 mph50%30.27 "HgN/A
3:50 AM50 °FPassing clouds.25 mph50%30.30 "HgN/A
2:50 AM50 °FPassing clouds.30 mph47%30.30 "HgN/A
2:20 AM50 °FPassing clouds.28 mph47%30.30 "HgN/A
1:50 AM50 °FPassing clouds.29 mph47%30.30 "HgN/A
12:50 AM50 °FPassing clouds.29 mph50%30.30 "HgN/A
12:20 AM50 °FPassing clouds.26 mph54%30.30 "HgN/A
11:50 PM
Sat, Feb 6
50 °FPassing clouds.30 mph54%30.30 "HgN/A
10:50 PM50 °FPassing clouds.30 mph54%30.27 "HgN/A
10:20 PM50 °FPassing clouds.30 mph54%30.27 "HgN/A
9:50 PM50 °FPassing clouds.30 mph54%30.27 "HgN/A
9:20 PM50 °FPassing clouds.30 mph54%30.27 "HgN/A
8:50 PM50 °FPassing clouds.31 mph54%30.27 "HgN/A
8:20 PM50 °FPassing clouds.24 mph54%30.24 "HgN/A
Weather by CustomWeather, © 2016

See weather overviewHow to use our weather pages